Погода Гродно

Погода Гродно : погода сейчас, прогноз погоды и архив. Всё, что Вы хотите узнать о погоде Гродно!

Поиск расширенной информации на нашем сайте:

Другие новости

Новости СМИ2

Главная страница сайта

Новости сайта

03.07.2017

Напоминаем, что на нашем специализированном сайте Метеоцентр.Азия вы можете получить высокодетализированные автоматические прогнозы погоды по пунктам России, СНГ и мира в авиационном формате (включающие направление и скорость ветра, видимость, явления погоды, количество и форму облачности, нижнюю и верхнюю границу облачности).


Погода Гродно - сегодня

Время (UTC), дата Ветер
(°,м/с) 
Видим.   Явления Облачность Т
(°С)
Тd
(°С)
f(%) Тe
(°С)
Pmin
(гПа)
dP
(гПа)
Po
(мм)
O2
(г/м3)
Тmin Tmax R s Состояние
почвы
15 18.10.17 290 (З) 11000 м    8/0 средняя, верхняя 
[Ac trans|Ci fib]
+13.1 +9.4 78 +13  1014.3  747  286           
18 18.10.17 300 (СЗ) 10 км    8/0 верхняя 
[Ci fib]
+10.8 +9.2 90 +10  1015.1  0.6  748  288    +16       
21 18.10.17 320 (СЗ) 10 км    8/0 верхняя 
[Ci fib]
+10.3 +8.9 91 +10  1015.6  0.5  748  289           
00 19.10.17 тихо ()   10 км    8/0 верхняя 
[Ci fib]
+9.1 +8.1 93 +9  1016.4  0.6  749  291           
03 19.10.17 330 (СЗ) 10 км    8/3 300 м верхняя 
[St|Ci fib]
+8.6 +8 96 +9  1016.4  749  291           
06 19.10.17 020 (С) 0600 м  туман  ?/?  
+9.5 +9.5 100 +11  1017.2  0.8  749  290  +8.4         
09 19.10.17 050 (СВ) 7000 м  дымка{туман}  10/6 120 м средняя 
[St|Ac trans]
+11.2 +9.8 91 +12  1018  750  289           
12 19.10.17 030 (СВ) 11000 м  {туман}  9/6 270 м средняя 
[St|Ac trans]
+12.5 +9.8 84 +13  1018.2  0.3  750  287           
15 19.10.17 040 (СВ) 11000 м    9/6 540 м средняя 
[Sc|Ac trans]
+11.9 +9.3 84 +11  1018.2  750  288           
18 19.10.17 050 (СВ) 10 км    9/6 800 м средняя 
[Sc|Ac trans]
+10.6 +8.5 87 +11  1018.7  0.4  751  290    +12.6       
21 19.10.17 080 (В) 10 км    10/8 1000 м средняя 
[Sc|Ac trans]
+9.3 +7.8 90 +9  1020.3  1.4  752  292           
00 20.10.17 050 (СВ) 10 км    10/8 1000 м средняя 
[Sc|Ac trans]
+8.5 +7.7 95 +9  1020.5  0.2  752  292           
03 20.10.17 060 (СВ) 10 км    10/8 1000 м средняя 
[Sc|Ac trans]
+7.8 +6.7 93 +8  1020.9  0.2  752  293           
06 20.10.17 090 (В) 11000 м    9/9 1080 м 
[Sc]
+7.6 +5.1 84 +8  1021.2  0.3  752  294  +7.4         
09 20.10.17 100 (В) 12000 м    9/9 1000 м 
[Sc]
+7.9 +4.5 79 +7  1021.6  0.4  752  294           
12 20.10.17 100 (В) 12000 м    9/9 1080 м 
[Sc]
+9.1 +4.8 74 +9  1021.2  -0.3  752  293           
15 20.10.17 120 (ЮВ) 12000 м    9/9 1300 м 
[Sc]
+9.5 +5.8 78 +9  1020.3  -0.8  752  292           
18 20.10.17 120 (ЮВ) 11000 м    9/9 1200 м 
[Sc]
+8.8 +6.2 84 +8  1020.2  -0.1  752  292    +9.7       
21 20.10.17 120 (ЮВ) 10 км    9/9 1200 м 
[Sc]
+8.5 +6.4 87 +8  1019.6  -0.6  751  292           
00 21.10.17 090 (В) 10 км    9/9 800 м 
[Sc]
+8.2 +6.4 88 +8  1018.7  -0.9  750  293           
03 21.10.17 120 (ЮВ) 10 км    9/9 500 м 
[Sc]
+8.1 +6.4 89 +7  1017.5  -1.2  750  292           
06 21.10.17 110 (В) 10 км    10/10 360 м 
[St]
+8.1 +5.9 86 +8  1016.7  -0.8  749  292  +7.9         
09 21.10.17 100 (В) 10 км    10/10 400 м 
[St]
+8.4 +5.5 82 +8  1016.4  -0.3  749  292           
12 21.10.17 090 (В) 8000 м  слаб. ливневой дождь  9/8 240 м кучево-дожд., средняя 
[Cb calv|Ac trans]
+7.6 +6.2 91 +6  1015.4  -1  748  292      0.0     
15 21.10.17 080 (В) 8000 м  слаб. ливневой дождь  9/8 420 м кучево-дожд., средняя 
[Cb calv|Ac trans]
+6.5 +5.4 93 +5  1016  0.5  748  294      0.3     
Время (UTC), дата Ветер
(°,м/с) 
Видим.   Явления Облачность Т
(°С)
Тd
(°С)
f(%) Тe
(°С)
Pmin
(гПа)
dP
(гПа)
Po
(мм)
O2
(г/м3)
Тmin Tmax R s Состояние
почвы

Для получения пояснительной информации подведите курсор к названию столбца.

ПОГОДА Гродно - архив

Всё, что Вы хотите узнать о погоде Гродно - удобно и подробно!

Выберите нужную дату (начиная с 1 января 2015* года) и нажмите кнопку "Найти".
Будут отображены архивные сводки погоды по пункту Гродно, начиная с указанной даты.


Отображать данные в формате CSV (для использования в таблицах Excel)


Внимание! Наш архив погоды предназначен исключительно для личного некоммерческого использования в познавательных целях. Если Вам необходимы официальные справки о состоянии погоды (для производственных, юридических, коммерческих и т.п. целей), обращайтесь в органы Росгидромета.

*Примечание: данная дата относится к архиву по метеостанциям СССР (Россия, СНГ, Балтия).
Архив по метеостанциям Зарубежной Европы и Азии (кроме Китая) хранится 10 дней, по другим регионам земного шара (Китай, Африка, Америка, Австралия, Океания) - 1 день.

Гродно - район местоположения метеостанции


Название, широта, долгота, высота метеостанции:
Гродно 53.6°ш. 24.1°д. 134 м над ур. моря [Беларусь]

Дополнительная информация

В oтличие oт бoльшинства пoгoдных сайтoв мы публикуем пoдрoбную метеoинфoрмацию в детальнoм прoфессиoнальнoм фoрмате.

Характеристики температуры и влажнoсти вoздуха измеряются на высoте 2 м в тени вдали oт зданий и деревьев.
Скoрoсть ветра измеряется на высoте 10 м (на урoвне рoста челoвека скoрoсть ветра ниже в 1.5-2 раза). Если метеoстанция нахoдится в гoрoде или в лесу, тo скoрoсть ветра занижена на 2-4 м/с пo сравнению с oткрытым местoм. Скoрoсть ветра над акватoриями крупных рек и oзёр, а также на вершинах хoлмoв на 2-5 м/с выше, чем в oбычных услoвиях.
Атмoсфернoе давление в разных тoчках местнoсти мoжет значительнo oтличаться oт давления на метеoстанции, в зависимoсти oт услoвий рельефа (при пoдъёме на 10 м давление пoнижается примернo на 1 мм рт.ст.).